Flag for Pakistan Weather past 2 weeks in Lahore, Pakistan

Now
82 °F

Clear.


Feels Like: 87 °F
Forecast: 75 / 93 °F
Wind: 5 mph from East

Location: Lahore Airport

Current Time: Sep 30, 2014 at 11:15:31 PM

Latest Report: Sep 30, 2014 at 11:00 PM


Visibility: 2 mi

Pressure: 29.86 "Hg

Humidity: 70%

Dew point: 72 °F

Location of LahoreLocation

Historic Weather in Lahore — Graph

°F

Lahore temperature yesterday

Maximum temperature yesterday: 93 °F (at 1:25 PM)
Minimum temperature yesterday: 81 °F (at 11:53 PM)
Average temperature yesterday: 86 °F

Past Weeks' High & Low Weather Summary

 TemperatureHumidityPressure
High99 °F (Sep 22, 3:29 PM)94% (Sep 23, 5:00 AM)29.89 "Hg (Sep 23, 5:00 AM)
Low75 °F (Sep 21, 2:55 AM)37% (Sep 26, 3:55 PM)29.59 "Hg (Sep 16, 5:25 PM)
Average86 °F66%29.72 "Hg
* Reported Sep 15 9:25 PM — Sep 30 9:55 PM, Lahore, Weather by CustomWeather, © 2014

Note: Actual official high and low records may vary slightly from our data, if they occured in-between our weather recording intervals... More about our weather records

Advertising

Lahore weather history for previous 24 hours

 ConditionsComfort  
Time TempWeatherWind HumidityBarometerVisibility
9:55 PM
Sep 30
84 °FClear.6 mph66%29.86 "Hg2 mi
9:25 PM86 °FClear.7 mph62%29.86 "Hg2 mi
8:55 PM86 °FClear.3 mph62%29.86 "Hg2 mi
8:25 PM86 °FWarm.N/A62%29.86 "HgN/A
7:55 PM86 °FClear.5 mph62%29.83 "Hg2 mi
7:30 PM86 °FSmoke.6 mph62%29.83 "Hg3 mi
7:00 PM88 °FSmoke.6 mph59%29.83 "Hg3 mi
6:25 PM88 °FClear.6 mph59%29.83 "Hg3 mi
5:55 PM90 °FClear.3 mph55%29.80 "Hg4 mi
5:25 PM90 °FClear.5 mph52%29.80 "Hg4 mi
4:55 PM91 °FClear.3 mph49%29.80 "Hg4 mi
2:55 PM95 °FPassing clouds.6 mph44%29.80 "Hg4 mi
2:25 PM93 °FPassing clouds.6 mph47%29.80 "Hg4 mi
1:55 PM93 °FPassing clouds.5 mph47%29.83 "Hg4 mi
1:25 PM93 °FPassing clouds.6 mph47%29.83 "Hg4 mi
1:00 PM93 °FPassing clouds.7 mph47%29.83 "Hg5 mi
12:55 PM93 °FPassing clouds.7 mph47%29.83 "Hg5 mi
12:25 PM91 °FPassing clouds.7 mph52%29.86 "Hg4 mi
11:55 AM91 °FPassing clouds.8 mph52%29.86 "Hg4 mi
11:25 AM90 °FClear.7 mph52%29.86 "Hg4 mi
10:55 AM90 °FClear.7 mph52%29.86 "Hg4 mi
10:25 AM88 °FClear.7 mph59%29.86 "Hg3 mi
9:55 AM86 °FClear.8 mph62%29.89 "Hg3 mi
9:25 AM86 °FClear.7 mph62%29.86 "Hg2 mi
8:55 AM84 °FClear.6 mph70%29.86 "Hg2 mi
8:25 AM81 °FClear.5 mph74%29.86 "Hg2 mi
7:55 AM81 °FClear.3 mph74%29.83 "Hg2 mi
7:30 AM79 °FFog.5 mph79%29.83 "Hg2 mi
7:00 AM77 °FFog.5 mph83%29.83 "Hg2 mi
6:30 AM75 °FFog.5 mph89%29.83 "Hg1 mi
5:00 AM75 °FClear.6 mph89%29.80 "Hg2 mi
4:30 AM75 °FClear.3 mph89%29.80 "Hg2 mi
4:00 AM77 °FClear.5 mph83%29.80 "Hg2 mi
3:30 AM77 °FClear.No wind79%29.80 "Hg2 mi
3:00 AM79 °FClear.No wind74%29.80 "Hg2 mi
2:30 AM77 °FClear.No wind79%29.80 "Hg2 mi
1:55 AM79 °FClear.No wind74%29.80 "Hg2 mi
1:24 AM79 °FClear.No wind79%29.80 "Hg2 mi
12:21 AM81 °FClear.No wind74%29.80 "Hg2 mi
11:53 PM
Sep 29
81 °FClear.No wind74%29.80 "Hg2 mi
11:30 PM82 °FClear.3 mph70%29.83 "Hg2 mi
11:00 PM82 °FClear.6 mph70%29.83 "Hg2 mi
Weather by CustomWeather, © 2014

See weather overviewHow to use our weather pages